Weather in Oktjabr'sky

Russia / Chelyabinsk Oblast     54°52′37″N   59°46′36″E
temp.,
°C
wind,
m/s
gust,
m/s
humid.,
%
clouds,
%
prec.,
mm/h
press.,
hPa
HPBL,
m
9 march, tue
tue923:00−8wsw4148327 0.1 1006717
02:00−11sw229455 0.0 100628
05:00−10ssw279564 0.1 1004178
08:00−9ssw389587 0.0 1003175
11:00−5w7137261 0.2 10051719
14:00−5w6107354 0.1 10071587
17:00−5wnw247872 0.3 1009874
20:00−11nnw1188100 0.0 101021
10 march, wed
wed1023:00−13e0091100 0.0 101021
02:00−11ene1197100 0.3 100823
05:00−11e1197100 0.9 100647
08:00−12e1296100 0.8 1004167
11:00−9e2493100 1.6 1001347
14:00−7ene3693100 0.7 998526
17:00−5ne4995100 2.1 997567
20:00−10nne31196100 1.8 997571
11 march, thu
thu1123:00−11nnw3995100 2.3 999639
02:00−13nnw5993100 2.0 1001777
05:00−15nw51091100 2.6 1004594
08:00−18nw5119099 0.1 1007557
11:00−18nw51288100 0.3 1010495
14:00−16nw6138496 0.0 1011721
17:00−17nw7138398 0.0 1013812
20:00−20wnw6148993 0.1 1016727
12 march, fri
fri1223:00−23wnw3139261 0.2 1017426
02:00−24wnw299732 0.1 1018249
05:00−23wnw2109643 0.2 1019267
08:00−18nw51491100 0.1 1021803
11:00−14nw5128593 0.3 1021783
14:00−11wnw6128487 0.1 1021895
17:00−12wnw7148458 0.1 1022861
20:00−14wnw7168714 0.1 1024643
13 march, sat
sat1323:00−15wnw5179018 0.1 1027566
02:00−14wnw6178966 0.0 1028552
05:00−14wnw7188283 0.1 1029522
08:00−15wnw6198319 0.0 1030468
11:00−12wnw5158010 0.0 1031463
14:00−8wnw4107527 0.0 1031515
17:00−9wnw497960 0.0 1031519
20:00−14wnw339084 0.0 103166